[[{"header":{"parameterUnit":"m.s-1","parameterCategory":1,"la1":30.2991,"la2":30.254,"lo1":-89.0895,"lo2":-89.0444,"dy":0.0017,"dx":0.0017,"nx":28,"ny":28,"refTime":"2025-09-06T03:00:00:Z","depth":0,"parameterNumber":2,"parameterNumberName":"U-component_of_WINDS"},"data":[0,0,0,0,0,0,0,0,0,0,0,0,0,0,0,0,0,0,0,0,0,0,0,0,0,0,0,0,0,0,0,0,0,0,0,0,0,0,0,0,0,0,0,0,0,0,0,0,0,0,0,0,0,0,0,0,0,0,0.4903,0.4902,0,0.4851,0.485,0.485,0.4817,0.4817,0.4817,0.4817,0.4761,0.4759,0.4758,0,0,0,0,0,0,0,0,0,0,0,0,0,0.4971,0.497,0.4903,0.4902,0.4902,0.4851,0.485,0.4849,0.4817,0.4817,0.4817,0.4817,0.4761,0.476,0.4758,0,0,0,0,0,0,0,0,0,0,0,0,0,0.4933,0.497,0.4903,0.488,0.4877,0.4851,0.485,0.4849,0.4817,0.4817,0.4817,0.4817,0.4762,0.476,0.4758,0.475,0,0,0.4752,0.4751,0,0,0,0,0,0,0,0,0.4935,0.493,0.4884,0.4881,0.4878,0.484,0.4854,0.4816,0.4817,0.484,0.4817,0.4816,0.4787,0.4783,0.4774,0.4748,0.4745,0.4752,0.475,0.4749,0.4749,0,0,0,0,0,0,0,0.4938,0.4932,0.4882,0.4883,0.488,0.487,0.4865,0.4846,0.4815,0.4838,0.4835,0.483,0.4786,0.4776,0.4772,0.4745,0.4752,0.475,0.4749,0.4748,0.4708,0.4708,0,0,0,0,0,0,0.4944,0.4935,0.4884,0.4881,0.4907,0.4869,0.4863,0.4853,0.4816,0.481,0.483,0.4828,0.4779,0.4775,0.477,0.4758,0.4749,0.4748,0.4746,0.4708,0.4708,0.4708,0,0,0,0,0,0,0.4946,0.494,0.4886,0.4907,0.4899,0.4869,0.4857,0.4852,0.4842,0.481,0.4804,0.4826,0.4779,0.4773,0.4755,0.4755,0.4747,0.4745,0.4708,0.4708,0.4708,0.4734,0,0,0,0,0,0,0.4948,0.4941,0.4939,0.4907,0.4898,0.4873,0.4857,0.4851,0.4839,0.4836,0.4804,0.4799,0.4778,0.4759,0.4753,0.4753,0.4743,0.4707,0.4708,0.4708,0.4733,0.4735,0.4737,0,0,0,0,0,0.4951,0.4948,0.4939,0.4933,0.4895,0.4873,0.4868,0.4846,0.4839,0.4836,0.4815,0.48,0.4757,0.4757,0.4751,0.475,0.4707,0.4708,0.4708,0.4732,0.4735,0.4737,0,0,0,0,0,0,0.498,0.4944,0.4933,0.492,0.49,0.4868,0.4863,0.4849,0.483,0.4828,0.48,0.4793,0.4778,0.4762,0.4763,0.4739,0.473,0.4729,0.4751,0.4753,0.4755,0.4758,0.4742,0,0,0,0,0,0.4985,0.4971,0.494,0.4932,0.4922,0.4895,0.4884,0.4868,0.4846,0.4837,0.4815,0.4793,0.4774,0.4763,0.4744,0.4731,0.4722,0.4727,0.4729,0.473,0.473,0.472,0.4721,0.4709,0.4709,0.4709,0,0,0.4995,0.4974,0.4967,0.4937,0.492,0.4905,0.4888,0.4873,0.4861,0.4835,0.4817,0.48,0.4773,0.4757,0.4749,0.4744,0.4731,0.4731,0.4732,0.4731,0.472,0.4721,0.4722,0.4709,0.4709,0.4709,0,0,0.5006,0.4989,0.4979,0.4962,0.4936,0.4918,0.4916,0.4885,0.4873,0.4855,0.4834,0.4819,0.4788,0.4769,0.4756,0.4758,0.4743,0.4753,0.4763,0.4754,0.4754,0.4755,0.4755,0.4755,0.4752,0.4752,0.4753,0,0.5021,0.4999,0.4976,0.4962,0.4949,0.4925,0.4914,0.4899,0.4868,0.4858,0.4853,0.4812,0.4793,0.4771,0.4772,0.4762,0.4758,0.4756,0.4756,0.4757,0.4757,0.4756,0.4756,0.4754,0.4754,0.4753,0.4753,0,0.5019,0.5004,0.4999,0.497,0.4957,0.4945,0.4918,0.4907,0.4892,0.4874,0.4854,0.483,0.4805,0.4799,0.4784,0.4775,0.4772,0.4762,0.4752,0.476,0.4759,0.4758,0.4756,0.4755,0.4755,0.4754,0,0,0.5047,0.5005,0.5003,0.4989,0.4958,0.4946,0.4932,0.4908,0.4898,0.4877,0.4864,0.4838,0.4827,0.4812,0.4795,0.4787,0.4789,0.4777,0.4776,0.4779,0.4775,0.4783,0.4783,0.4779,0.4778,0.4778,0.4777,0,0.5052,0.5027,0.5005,0.4988,0.4972,0.4949,0.4936,0.4915,0.4898,0.4881,0.4861,0.4842,0.4831,0.4821,0.4812,0.4791,0.4787,0.479,0.4764,0.4764,0.4771,0.4783,0.4791,0.4791,0.4777,0.4777,0.4777,0,0.5055,0.5035,0.5016,0.4986,0.4979,0.4968,0.4944,0.4929,0.4904,0.4892,0.4874,0.4856,0.4839,0.4831,0.4805,0.4808,0.4796,0.4783,0.4783,0.4779,0.477,0.4778,0.4791,0.479,0.4776,0.4776,0.4776,0,0.5075,0.5044,0.5029,0.5017,0.4982,0.4975,0.496,0.4934,0.4921,0.49,0.489,0.4867,0.4854,0.4835,0.4811,0.4807,0.4788,0.4778,0.4775,0.4776,0.4772,0.4773,0.4782,0.4766,0.4766,0.4766,0.4766,0,0.5083,0.5072,0.5037,0.5028,0.5014,0.4989,0.4975,0.4958,0.4936,0.4921,0.4899,0.4885,0.4854,0.4836,0.4817,0.4798,0.4793,0.4781,0.4776,0.4783,0.4784,0.4774,0.4773,0.4766,0.4766,0.4766,0.4766,0,0.5103,0.508,0.5061,0.5029,0.5021,0.5012,0.4984,0.4973,0.4954,0.4935,0.4929,0.4899,0.4877,0.4851,0.482,0.4807,0.4789,0.4782,0.4798,0.4795,0.4794,0.4794,0.4797,0.4795,0.4781,0.4781,0.4781,0,0.5109,0.51,0.5067,0.5057,0.5042,0.5025,0.5011,0.4985,0.4972,0.4942,0.4934,0.491,0.489,0.4856,0.483,0.4806,0.4797,0.48,0.4793,0.48,0.4796,0.4797,0.4795,0.4801,0.4802,0.4802,0.4802,0,0.5122,0.5111,0.5093,0.507,0.5055,0.5035,0.5015,0.5007,0.4977,0.4962,0.494,0.4924,0.4893,0.4869,0.4842,0.4824,0.4807,0.4804,0.4802,0.4809,0.4818,0.4812,0.4802,0.4804,0.4804,0.4804,0.4804,0.4804,0.5134,0.5125,0.51,0.508,0.5062,0.5044,0.5032,0.5011,0.4992,0.4965,0.4951,0.4928,0.4902,0.4864,0.4847,0.4828,0.4822,0.4819,0.4819,0.4818,0.482,0.4822,0.4823,0.4823,0.4822,0.4822,0.4822,0,0.5145,0.5128,0.511,0.5082,0.5066,0.5053,0.503,0.5017,0.4998,0.4975,0.4956,0.4929,0.4906,0.4878,0.4853,0.4843,0.4834,0.4837,0.4837,0.4833,0.4827,0.4831,0.4844,0.4844,0.4844,0.4844,0.4844,0.4844,0.5149,0.5131,0.5117,0.509,0.5073,0.5052,0.5039,0.5021,0.5003,0.4975,0.4956,0.4938,0.4913,0.4885,0.4863,0.4855,0.4846,0.4851,0.4841,0.4835,0.4834,0.4832,0.4835,0.4849,0.4849,0.4848,0.4848,0.4848]},{"header":{"parameterUnit":"m.s-1","parameterCategory":1,"la1":30.2991,"la2":30.254,"lo1":-89.0895,"lo2":-89.0444,"dy":0.0017,"dx":0.0017,"nx":28,"ny":28,"refTime":"2025-09-06T03:00:00:Z","depth":0,"parameterNumber":3,"parameterNumberName":"V-component_of_WINDS"},"data":[0,0,0,0,0,0,0,0,0,0,0,0,0,0,0,0,0,0,0,0,0,0,0,0,0,0,0,0,0,0,0,0,0,0,0,0,0,0,0,0,0,0,0,0,0,0,0,0,0,0,0,0,0,0,0,0,0,0,-0.8009,-0.801,0,-0.8066,-0.8066,-0.8067,-0.8104,-0.8104,-0.8105,-0.8105,-0.8165,-0.8166,-0.8167,0,0,0,0,0,0,0,0,0,0,0,0,0,-0.7935,-0.7936,-0.8009,-0.801,-0.801,-0.8066,-0.8066,-0.8067,-0.8104,-0.8104,-0.8105,-0.8105,-0.8164,-0.8166,-0.8167,0,0,0,0,0,0,0,0,0,0,0,0,0,-0.7977,-0.7936,-0.8009,-0.8035,-0.8038,-0.8066,-0.8066,-0.8067,-0.8104,-0.8105,-0.8105,-0.8105,-0.8164,-0.8166,-0.8168,-0.8173,0,0,-0.8174,-0.8175,0,0,0,0,0,0,0,0,-0.7974,-0.7979,-0.8031,-0.8034,-0.8037,-0.8078,-0.8062,-0.8103,-0.8104,-0.8079,-0.8105,-0.8105,-0.8136,-0.814,-0.815,-0.8176,-0.8179,-0.8174,-0.8175,-0.8176,-0.8177,0,0,0,0,0,0,0,-0.7971,-0.7977,-0.8031,-0.8031,-0.8035,-0.8045,-0.8052,-0.807,-0.8105,-0.8081,-0.8084,-0.809,-0.8137,-0.8148,-0.8152,-0.8179,-0.8174,-0.8176,-0.8177,-0.8178,-0.8215,-0.8215,0,0,0,0,0,0,-0.7964,-0.7975,-0.803,-0.8033,-0.8006,-0.8046,-0.8053,-0.8065,-0.8105,-0.8111,-0.809,-0.8092,-0.8144,-0.8149,-0.8154,-0.8164,-0.8176,-0.8178,-0.8179,-0.8215,-0.8215,-0.8215,0,0,0,0,0,0,-0.7962,-0.7969,-0.8027,-0.8005,-0.8013,-0.8047,-0.806,-0.8066,-0.8076,-0.8111,-0.8118,-0.8094,-0.8145,-0.8151,-0.8168,-0.8167,-0.8179,-0.8181,-0.8215,-0.8215,-0.8215,-0.8184,0,0,0,0,0,0,-0.796,-0.7968,-0.7969,-0.8004,-0.8014,-0.804,-0.8059,-0.8066,-0.8079,-0.8082,-0.8117,-0.8123,-0.8145,-0.8165,-0.817,-0.817,-0.8182,-0.8216,-0.8215,-0.8215,-0.8185,-0.8182,-0.818,0,0,0,0,0,-0.7957,-0.7958,-0.7969,-0.7976,-0.8017,-0.804,-0.8045,-0.8071,-0.8079,-0.8082,-0.8105,-0.8122,-0.8166,-0.8167,-0.8173,-0.8173,-0.8216,-0.8215,-0.8215,-0.8186,-0.8183,-0.818,0,0,0,0,0,0,-0.7922,-0.7963,-0.7976,-0.7988,-0.801,-0.8046,-0.805,-0.8066,-0.8087,-0.8089,-0.812,-0.8128,-0.8142,-0.8159,-0.8159,-0.8181,-0.8193,-0.8194,-0.8169,-0.8166,-0.8164,-0.8159,-0.8184,0,0,0,0,0,-0.7916,-0.7931,-0.7966,-0.7974,-0.7984,-0.8015,-0.8026,-0.8044,-0.8068,-0.8078,-0.8102,-0.8125,-0.8144,-0.8156,-0.8176,-0.8188,-0.8197,-0.8191,-0.8189,-0.8186,-0.8187,-0.8196,-0.8194,-0.8213,-0.8213,-0.8213,0,0,-0.7903,-0.7927,-0.7935,-0.7967,-0.7986,-0.8002,-0.8022,-0.8037,-0.8049,-0.808,-0.8098,-0.8117,-0.8145,-0.816,-0.8168,-0.8175,-0.8184,-0.8186,-0.8184,-0.8185,-0.8195,-0.8193,-0.8191,-0.8212,-0.8212,-0.8213,0,0,-0.7888,-0.7907,-0.7916,-0.7935,-0.7964,-0.7985,-0.7987,-0.8021,-0.8034,-0.8053,-0.8076,-0.8092,-0.8124,-0.8143,-0.8158,-0.8151,-0.8169,-0.8157,-0.8144,-0.8152,-0.8151,-0.815,-0.8148,-0.8147,-0.8157,-0.8157,-0.8157,0,-0.7868,-0.7891,-0.7919,-0.7933,-0.7947,-0.7975,-0.7986,-0.8003,-0.8037,-0.8046,-0.8053,-0.8096,-0.8117,-0.8137,-0.8136,-0.8146,-0.8151,-0.8153,-0.8149,-0.8148,-0.8147,-0.8146,-0.8146,-0.8156,-0.8156,-0.8156,-0.8156,0,-0.7867,-0.7883,-0.7887,-0.7919,-0.7933,-0.7945,-0.7975,-0.7987,-0.8004,-0.8025,-0.8044,-0.8071,-0.8097,-0.8103,-0.812,-0.8127,-0.813,-0.8143,-0.8155,-0.8143,-0.8143,-0.8143,-0.8153,-0.8154,-0.8154,-0.8155,0,0,-0.783,-0.7878,-0.7879,-0.7894,-0.7929,-0.7942,-0.7956,-0.7981,-0.7991,-0.8014,-0.8027,-0.8055,-0.8067,-0.8083,-0.8103,-0.811,-0.8105,-0.8122,-0.8123,-0.8119,-0.8116,-0.8106,-0.8105,-0.8117,-0.8117,-0.8117,-0.8114,0,-0.782,-0.7845,-0.7871,-0.7888,-0.7904,-0.7932,-0.7945,-0.7968,-0.7988,-0.8005,-0.8027,-0.8047,-0.8061,-0.8071,-0.808,-0.8104,-0.8105,-0.8104,-0.813,-0.8131,-0.8122,-0.8105,-0.8095,-0.809,-0.8114,-0.8114,-0.8113,0,-0.7811,-0.7833,-0.7851,-0.7886,-0.7894,-0.7904,-0.793,-0.7946,-0.7973,-0.7988,-0.8006,-0.8027,-0.8045,-0.8056,-0.8081,-0.808,-0.8092,-0.8106,-0.8107,-0.811,-0.8121,-0.8108,-0.8089,-0.8088,-0.8113,-0.8113,-0.8113,0,-0.7783,-0.7817,-0.7833,-0.7845,-0.7886,-0.7893,-0.791,-0.7938,-0.7952,-0.7975,-0.7985,-0.801,-0.8024,-0.8043,-0.8071,-0.8076,-0.8094,-0.8107,-0.8107,-0.8106,-0.8109,-0.8108,-0.8092,-0.8116,-0.8116,-0.8116,-0.8116,0,-0.777,-0.778,-0.7821,-0.7831,-0.7844,-0.7874,-0.7886,-0.7906,-0.7931,-0.7946,-0.7972,-0.7986,-0.8022,-0.804,-0.8062,-0.808,-0.8086,-0.8099,-0.8104,-0.8096,-0.8095,-0.8105,-0.8106,-0.8116,-0.8116,-0.8116,-0.8116,0,-0.774,-0.7768,-0.7787,-0.7824,-0.7834,-0.7842,-0.7874,-0.7885,-0.7907,-0.7926,-0.7932,-0.7967,-0.799,-0.802,-0.8052,-0.8067,-0.8083,-0.8091,-0.8073,-0.8077,-0.8075,-0.8075,-0.8065,-0.8065,-0.8089,-0.8089,-0.8088,0,-0.773,-0.7738,-0.7777,-0.7788,-0.7805,-0.7823,-0.7838,-0.7869,-0.7883,-0.7916,-0.7924,-0.7949,-0.797,-0.8006,-0.8035,-0.806,-0.807,-0.8065,-0.8074,-0.8066,-0.8071,-0.807,-0.8072,-0.8062,-0.8062,-0.8061,-0.8061,0,-0.7708,-0.7722,-0.7742,-0.7767,-0.7784,-0.7805,-0.7828,-0.7836,-0.7872,-0.7887,-0.7911,-0.7928,-0.7961,-0.7986,-0.8016,-0.8035,-0.8054,-0.8058,-0.806,-0.8052,-0.8041,-0.8048,-0.8067,-0.8058,-0.8058,-0.8059,-0.8059,-0.8059,-0.7688,-0.7698,-0.7727,-0.7749,-0.7769,-0.779,-0.7802,-0.7826,-0.7846,-0.7876,-0.7893,-0.7917,-0.7946,-0.7987,-0.8006,-0.8025,-0.8033,-0.8035,-0.8035,-0.8035,-0.8033,-0.8038,-0.8031,-0.8031,-0.8031,-0.8031,-0.8031,0,-0.7669,-0.7689,-0.7709,-0.774,-0.7757,-0.7774,-0.78,-0.7814,-0.7834,-0.786,-0.7881,-0.7909,-0.7934,-0.7965,-0.7992,-0.8002,-0.8012,-0.8008,-0.8008,-0.8012,-0.8025,-0.8021,-0.8,-0.8,-0.8,-0.8,-0.8,-0.8,-0.7661,-0.7678,-0.7696,-0.7724,-0.7745,-0.7767,-0.7781,-0.7801,-0.7822,-0.7852,-0.7873,-0.7893,-0.7921,-0.7951,-0.7975,-0.7983,-0.7992,-0.7986,-0.7998,-0.8008,-0.8011,-0.8014,-0.8011,-0.7988,-0.7988,-0.7984,-0.7984,-0.7984]}]]